Regional Weather Roundup
Issued by NWS

Home | Current Version | Previous Version | Graphics & Text | Print | Product List | Glossary On
Versions: 1 2 3 4 5 6 7 8 9 10 11 12 13 14 15 16 17 18 19 20 21 22 23 24 25 26 27 28 29 30 31 32 33 34 35 36 37 38 39 40 41 42 43 44 45 46 47 48 49 50
000
ASUS43 KLMK 230602
RWRKY
KENTUCKY REGIONAL WEATHER ROUNDUP
NATIONAL WEATHER SERVICE LOUISVILLE KY
200 AM EDT SUN JUL 23 2017

NOTE "FAIR" INDICATES FEW OR NO CLOUDS BELOW 12,000 FEET
WITH NO SIGNIFICANT WEATHER AND/OR OBSTRUCTIONS TO VISIBILITY.

KYZ001>023-026-027-061>063-070>075-230700-
WESTERN AND SOUTH CENTRAL KENTUCKY

CITY           SKY/WX    TMP DP  RH WIND       PRES   REMARKS
PADUCAH        CLEAR     82  74  76 SW7       29.85F
HENDERSON      CLEAR     82  76  81 SW8       29.82F
OWENSBORO      MOCLDY    82  76  81 SW8       29.83F
HOPKINSVILLE   CLEAR     81  76  86 S10       29.88F
BOWLING GREEN  PTCLDY    83  76  79 SW9       29.88F HX  91
GLASGOW        NOT AVBL
$$

KYZ024-025-028>034-038-045-046-053-230700-
NORTH CENTRAL KENTUCKY

CITY           SKY/WX    TMP DP  RH WIND       PRES   REMARKS
LOUISVILLE/SDF CLOUDY    87  75  67 SW10G17   29.82F HX  96
LOUISVILLE/LOU PTCLDY    86  77  74 SW8       29.83F HX  97
FORT KNOX      PTCLDY    82  74  77 SW8       29.83F
$$

KYZ035>037-039>044-047>052-055>060-089>105-230700-
NORTHEAST KENTUCKY

CITY           SKY/WX    TMP DP  RH WIND       PRES   REMARKS
LEXINGTON      CLOUDY    83  73  72 SW6       29.88S
COVINGTON      CLOUDY    72  72 100 S5        29.84F
FRANKFORT      MOCLDY    83  73  72 SW6       29.85F
$$

KYZ054-064>069-076>088-106>120-230700-
SOUTHEAST KENTUCKY

CITY           SKY/WX    TMP DP  RH WIND       PRES   REMARKS
JACKSON        MOCLDY    81  72  74 CALM      29.93S
LONDON         CLEAR     79  72  79 CALM      29.93S
SOMERSET       NOT AVBL
MIDDLESBORO    CLEAR     75  74  97 CALM      29.95F
MONTICELLO     CLEAR     77  74  90 W12       29.93F
$$





USA.gov is the U.S. government's official web portal to all federal, state and local government web resources and services.